• In Netherlands
  • List of Countries
  • For 7 days
  • Water Temperature
  • Satellite Maps
  • Weather Map
  • Weather Widgets
  • user-avatar
    Login

    Hourly Weather Amar

    Today, 26 April, Wednesday

    Time Temperature Precipitation Wind Pressure Humidity
    00:00 +29°C° 0 mm 5 mps 754 mmHg 49%
    01:00 +28°C° 0 mm 5 mps 754 mmHg 50%
    02:00 +28°C° 0 mm 5 mps 754 mmHg 51%
    03:00 +28°C° 0 mm 5 mps 754 mmHg 52%
    04:00 +28°C° 0 mm 5 mps 754 mmHg 52%
    05:00 +28°C° 0 mm 6 mps 754 mmHg 52%
    06:00 +28°C° 0 mm 6 mps 754 mmHg 52%
    07:00 +30°C° 0 mm 6 mps 755 mmHg 46%
    08:00 +32°C° 0 mm 7 mps 755 mmHg 41%
    09:00 +33°C° 0 mm 7 mps 755 mmHg 35%
    10:00 +34°C° 0 mm 7 mps 755 mmHg 32%
    11:00 +35°C° 0 mm 7 mps 755 mmHg 29%
    12:00 +36°C° 0 mm 7 mps 755 mmHg 25%
    13:00 +36°C° 0 mm 7 mps 755 mmHg 27%
    14:00 +35°C° 0 mm 7 mps 755 mmHg 28%
    15:00 +34°C° 0 mm 7 mps 754 mmHg 30%
    16:00 +33°C° 0 mm 7 mps 755 mmHg 32%
    17:00 +33°C° 0 mm 6 mps 755 mmHg 35%
    18:00 +32°C° 0 mm 6 mps 755 mmHg 37%
    19:00 +30°C° 0 mm 5 mps 755 mmHg 37%
    20:00 +30°C° 0 mm 5 mps 755 mmHg 37%
    21:00 +30°C° 0 mm 5 mps 755 mmHg 37%
    22:00 +30°C° 0 mm 5 mps 755 mmHg 36%
    23:00 +29°C° 0 mm 5 mps 755 mmHg 35%

    Tomorrow, 27 April, Thursday

    Time Temperature Precipitation Wind Pressure Humidity
    00:00 +29°C° 0 mm 4 mps 755 mmHg 34%
    01:00 +29°C° 0 mm 5 mps 755 mmHg 35%
    02:00 +29°C° 0 mm 5 mps 754 mmHg 36%
    03:00 +29°C° 0 mm 5 mps 754 mmHg 37%
    04:00 +29°C° 0 mm 5 mps 754 mmHg 39%
    05:00 +29°C° 0 mm 5 mps 755 mmHg 40%
    06:00 +29°C° 0 mm 5 mps 755 mmHg 42%
    07:00 +32°C° 0 mm 6 mps 755 mmHg 37%
    08:00 +33°C° 0 mm 6 mps 756 mmHg 31%
    09:00 +35°C° 0 mm 6 mps 756 mmHg 25%
    10:00 +36°C° 0 mm 6 mps 756 mmHg 23%
    11:00 +36°C° 0 mm 6 mps 755 mmHg 21%
    12:00 +38°C° 0 mm 6 mps 755 mmHg 19%
    13:00 +38°C° 0 mm 6 mps 755 mmHg 19%
    14:00 +38°C° 0 mm 7 mps 754 mmHg 20%
    15:00 +38°C° 0 mm 7 mps 754 mmHg 20%
    16:00 +36°C° 0 mm 7 mps 754 mmHg 24%
    17:00 +34°C° 0 mm 6 mps 754 mmHg 28%
    18:00 +33°C° 0 mm 5 mps 754 mmHg 31%
    19:00 +32°C° 0 mm 5 mps 755 mmHg 34%
    20:00 +32°C° 0 mm 4 mps 755 mmHg 36%
    21:00 +30°C° 0 mm 4 mps 755 mmHg 38%
    22:00 +30°C° 0 mm 4 mps 755 mmHg 39%
    23:00 +30°C° 0 mm 4 mps 755 mmHg 39%

    Day after tomorrow, 28 April, Friday

    Time Temperature Precipitation Wind Pressure Humidity
    00:00 +29°C° 0 mm 4 mps 755 mmHg 40%
    01:00 +29°C° 0 mm 4 mps 755 mmHg 38%
    02:00 +29°C° 0 mm 3 mps 754 mmHg 37%
    03:00 +29°C° 0 mm 3 mps 754 mmHg 36%
    04:00 +29°C° 0 mm 3 mps 754 mmHg 36%
    05:00 +30°C° 0 mm 3 mps 754 mmHg 36%
    06:00 +30°C° 0 mm 3 mps 755 mmHg 35%
    07:00 +31°C° 0 mm 3 mps 755 mmHg 32%
    08:00 +34°C° 0 mm 3 mps 755 mmHg 29%
    09:00 +35°C° 0 mm 4 mps 756 mmHg 26%
    10:00 +36°C° 0 mm 3 mps 755 mmHg 25%
    11:00 +37°C° 0 mm 3 mps 755 mmHg 24%
    12:00 +37°C° 0 mm 3 mps 755 mmHg 22%
    13:00 +38°C° 0 mm 3 mps 754 mmHg 22%
    14:00 +38°C° 0 mm 4 mps 754 mmHg 22%
    15:00 +38°C° 0 mm 4 mps 753 mmHg 22%
    16:00 +37°C° 0 mm 4 mps 753 mmHg 24%
    17:00 +36°C° 0 mm 3 mps 753 mmHg 26%
    18:00 +35°C° 0 mm 3 mps 753 mmHg 28%
    19:00 +34°C° 0 mm 3 mps 754 mmHg 29%
    20:00 +34°C° 0 mm 3 mps 754 mmHg 29%
    21:00 +34°C° 0 mm 3 mps 754 mmHg 30%
    22:00 +33°C° 0 mm 3 mps 754 mmHg 29%
    23:00 +32°C° 0 mm 2 mps 754 mmHg 29%

    29 April, Saturday

    Time Temperature Precipitation Wind Pressure Humidity
    00:00 +32°C° 0 mm 2 mps 753 mmHg 28%
    01:00 +31°C° 0 mm 2 mps 753 mmHg 30%
    02:00 +31°C° 0 mm 2 mps 753 mmHg 31%
    03:00 +30°C° 0 mm 1 mps 753 mmHg 33%
    04:00 +30°C° 0 mm 2 mps 753 mmHg 32%
    05:00 +31°C° 0 mm 2 mps 754 mmHg 31%
    06:00 +31°C° 0 mm 2 mps 754 mmHg 31%
    07:00 +32°C° 0 mm 2 mps 754 mmHg 28%
    08:00 +34°C° 0 mm 2 mps 755 mmHg 26%
    09:00 +36°C° 0 mm 2 mps 755 mmHg 23%
    10:00 +37°C° 0 mm 2 mps 755 mmHg 21%
    11:00 +37°C° 0 mm 2 mps 755 mmHg 20%
    12:00 +37°C° 0 mm 1 mps 754 mmHg 18%
    13:00 +39°C° 0 mm 2 mps 754 mmHg 17%
    14:00 +39°C° 0 mm 3 mps 753 mmHg 17%
    15:00 +40°C° 0 mm 4 mps 753 mmHg 16%
    16:00 +38°C° 0 mm 4 mps 753 mmHg 20%
    17:00 +37°C° 0 mm 5 mps 753 mmHg 23%
    18:00 +36°C° 0 mm 5 mps 753 mmHg 27%
    19:00 +36°C° 0 mm 5 mps 753 mmHg 29%
    20:00 +35°C° 0 mm 5 mps 754 mmHg 30%
    21:00 +35°C° 0 mm 5 mps 754 mmHg 32%
    22:00 +35°C° 0 mm 4 mps 754 mmHg 32%
    23:00 +34°C° 0 mm 3 mps 753 mmHg 32%

    30 April, Sunday

    Time Temperature Precipitation Wind Pressure Humidity
    00:00 +34°C° 0 mm 2 mps 753 mmHg 32%
    01:00 +32°C° 0 mm 2 mps 753 mmHg 32%
    02:00 +32°C° 0 mm 2 mps 753 mmHg 31%
    03:00 +32°C° 0 mm 2 mps 753 mmHg 31%
    04:00 +33°C° 0 mm 3 mps 753 mmHg 34%
    05:00 +31°C° 0 mm 3 mps 754 mmHg 37%
    06:00 +31°C° 0 mm 3 mps 754 mmHg 40%
    07:00 +33°C° 0 mm 3 mps 755 mmHg 37%
    08:00 +34°C° 0 mm 3 mps 755 mmHg 33%
    09:00 +35°C° 0 mm 2 mps 756 mmHg 30%
    10:00 +36°C° 0 mm 3 mps 755 mmHg 28%
    11:00 +37°C° 0 mm 3 mps 755 mmHg 25%
    12:00 +38°C° 0 mm 3 mps 754 mmHg 23%
    13:00 +38°C° 0 mm 3 mps 754 mmHg 23%
    14:00 +38°C° 0 mm 3 mps 754 mmHg 22%
    15:00 +38°C° 0 mm 3 mps 753 mmHg 21%
    16:00 +37°C° 0 mm 3 mps 753 mmHg 22%
    17:00 +37°C° 0 mm 3 mps 753 mmHg 23%
    18:00 +36°C° 0 mm 4 mps 753 mmHg 24%
    19:00 +36°C° 0 mm 3 mps 753 mmHg 25%
    20:00 +36°C° 0 mm 3 mps 754 mmHg 26%
    21:00 +35°C° 0 mm 2 mps 754 mmHg 26%
    22:00 +35°C° 0 mm 2 mps 753 mmHg 26%
    23:00 +35°C° 0 mm 2 mps 753 mmHg 26%

    1 May, Monday

    Time Temperature Precipitation Wind Pressure Humidity
    00:00 +33°C° 0 mm 1 mps 752 mmHg 26%
    01:00 +34°C° 0 mm 2 mps 752 mmHg 27%
    02:00 +34°C° 0 mm 2 mps 752 mmHg 28%
    03:00 +34°C° 0 mm 3 mps 752 mmHg 29%
    04:00 +33°C° 0 mm 3 mps 752 mmHg 31%
    05:00 +33°C° 0 mm 3 mps 753 mmHg 34%
    06:00 +33°C° 0 mm 3 mps 753 mmHg 36%
    07:00 +34°C° 0 mm 2 mps 754 mmHg 34%
    08:00 +35°C° 0 mm 2 mps 754 mmHg 32%
    09:00 +35°C° 0 mm 1 mps 754 mmHg 30%
    10:00 +36°C° 0 mm 2 mps 754 mmHg 28%
    11:00 +37°C° 0 mm 2 mps 754 mmHg 26%
    12:00 +38°C° 0 mm 2 mps 753 mmHg 24%
    13:00 +38°C° 0 mm 2 mps 753 mmHg 23%
    14:00 +39°C° 0 mm 2 mps 753 mmHg 22%
    15:00 +39°C° 0 mm 3 mps 752 mmHg 21%
    16:00 +38°C° 0 mm 3 mps 752 mmHg 22%
    17:00 +38°C° 0 mm 4 mps 752 mmHg 23%
    18:00 +37°C° 0 mm 4 mps 753 mmHg 24%
    19:00 +36°C° 0 mm 4 mps 753 mmHg 26%
    20:00 +36°C° 0 mm 4 mps 753 mmHg 28%
    21:00 +35°C° 0 mm 4 mps 753 mmHg 30%
    22:00 +35°C° 0 mm 4 mps 753 mmHg 31%
    23:00 +34°C° 0 mm 4 mps 753 mmHg 32%
    Show more